St. Joseph, KS

1:02 AM CST on December 07, 2019 (GMT -0600)
Rosecrans Memorial

Weather History for KSTJ - October, 2019

Change the Weather History Date:

Thursday, October 24, 2019

  Actual Average Record
Temperature  
Mean Temperature 42 °F 52 °F  
Max Temperature 46 °F 64 °F 86 °F (1940)
Min Temperature 38 °F 40 °F 23 °F (1999)
Degree Days  
Heating Degree Days 23 13  
Month to date heating degree days 255 233  
Since 1 July heating degree days 260 313  
Cooling Degree Days 0 0  
Month to date cooling degree days 17 18  
Year to date cooling degree days 1466 1217  
Moisture  
Dew Point 34 °F    
Average Humidity 72    
Maximum Humidity 86    
Minimum Humidity 58    
Precipitation  
Precipitation 0.00 in 0.09 in 1.08 in (1908)
Month to date precipitation 3.14 2.23  
Year to date precipitation 36.74 31.95  
Sea Level Pressure  
Sea Level Pressure 30.36 in    
Wind  
Wind Speed 8 mph (North)    
Max Wind Speed 14 mph    
Max Gust Speed 19 mph    
Visibility 10 miles    
Events      
T = Trace of Precipitation, MM = Missing Value Source: NWS Daily Summary

Daily Weather History Graph

Daily Weather History Graph

Search for Another Location

Airport or City:

Astronomy

Oct. 24, 2019 Rise Set
Actual Time 7:39 AM CDT 6:27 PM CDT
Civil Twilight 7:11 AM CDT 6:55 PM CDT
Nautical Twilight 6:40 AM CDT 7:26 PM CDT
Astronomical Twilight 6:08 AM CDT 7:58 PM CDT
Moon 3:11 AM CDT (10/24) 4:55 PM CDT (10/24)
Length of Visible Light 11h 43m
Length of Day
10h 48m
Waning Crescent, 16% of the Moon is Illuminated
Oct 24
Waning Crescent
Oct 27
New
Nov 4
First Quarter
Nov 12
Full
Nov 19
Last Quarter

Hourly Weather History & Observations

Time (CDT) Temp. Windchill Dew Point Humidity Pressure Visibility Wind Dir Wind Speed Gust Speed Precip Events Conditions
12:53 AM 43.0 °F 36.4 °F 37.9 °F 82% 30.22 in 10.0 mi North 12.7 mph - N/A   Clear
1:53 AM 43.0 °F 37.2 °F 37.0 °F 80% 30.26 in 10.0 mi North 10.4 mph - N/A   Clear
2:37 AM 43.0 °F 37.7 °F 37.0 °F 80% 30.28 in 10.0 mi North 9.2 mph - N/A   Mostly Cloudy
2:53 AM 43.0 °F 38.2 °F 37.0 °F 80% 30.27 in 10.0 mi NNE 8.1 mph - N/A   Mostly Cloudy
3:06 AM 43.0 °F 37.7 °F 37.0 °F 80% 30.27 in 10.0 mi NNE 9.2 mph - N/A   Partly Cloudy
3:53 AM 43.0 °F 36.8 °F 37.0 °F 80% 30.26 in 10.0 mi North 11.5 mph - N/A   Clear
4:53 AM 43.0 °F 38.2 °F 36.0 °F 76% 30.29 in 10.0 mi North 8.1 mph - N/A   Clear
5:53 AM 42.1 °F 36.6 °F 36.0 °F 79% 30.33 in 10.0 mi North 9.2 mph - N/A   Scattered Clouds
6:43 AM 42.1 °F 35.7 °F 35.1 °F 76% 30.34 in 10.0 mi North 11.5 mph - N/A   Mostly Cloudy
6:53 AM 42.1 °F 35.7 °F 35.1 °F 76% 30.35 in 10.0 mi North 11.5 mph - N/A   Mostly Cloudy
7:53 AM 41.0 °F 35.2 °F 35.1 °F 79% 30.37 in 10.0 mi NNE 9.2 mph - N/A   Mostly Cloudy
8:53 AM 42.1 °F 36.1 °F 33.1 °F 70% 30.39 in 10.0 mi NNW 10.4 mph - N/A   Scattered Clouds
9:53 AM 42.1 °F 36.6 °F 33.1 °F 70% 30.41 in 10.0 mi NNW 9.2 mph - N/A   Clear
10:38 AM 44.1 °F 39.0 °F 33.1 °F 65% 30.41 in 10.0 mi NNW 9.2 mph - N/A   Mostly Cloudy
10:53 AM 44.1 °F 39.0 °F 33.1 °F 65% 30.43 in 10.0 mi North 9.2 mph - N/A   Overcast
11:53 AM 44.1 °F 39.5 °F 33.1 °F 65% 30.44 in 10.0 mi North 8.1 mph - N/A   Overcast
12:53 PM 46.0 °F 40.6 °F 33.1 °F 61% 30.42 in 10.0 mi North 11.5 mph - N/A   Overcast
1:15 PM 46.0 °F 40.6 °F 33.1 °F 61% 30.39 in 10.0 mi North 11.5 mph - N/A   Overcast
1:45 PM 45.0 °F 41.2 °F 33.1 °F 63% 30.39 in 10.0 mi North 6.9 mph - N/A   Overcast
1:53 PM 45.0 °F 40.1 °F 33.1 °F 63% 30.40 in 10.0 mi NE 9.2 mph - N/A   Overcast
2:01 PM 45.0 °F 39.7 °F 33.1 °F 63% 30.38 in 10.0 mi NNE 10.4 mph 16.1 mph N/A   Overcast
2:39 PM 45.0 °F 38.9 °F 33.1 °F 63% 30.37 in 10.0 mi North 12.7 mph - N/A   Overcast
2:53 PM 45.0 °F 39.7 °F 33.1 °F 63% 30.36 in 10.0 mi North 10.4 mph - N/A   Overcast
3:11 PM 46.0 °F 41.0 °F 33.1 °F 61% 30.33 in 10.0 mi North 10.4 mph - N/A   Overcast
3:21 PM 46.0 °F 40.6 °F 33.1 °F 61% 30.33 in 10.0 mi North 11.5 mph - N/A   Overcast
3:31 PM 46.0 °F 41.0 °F 33.1 °F 61% 30.34 in 10.0 mi NNE 10.4 mph - N/A   Overcast
3:53 PM 46.0 °F 42.5 °F 32.0 °F 58% 30.36 in 10.0 mi North 6.9 mph - N/A   Overcast
4:53 PM 45.0 °F 40.1 °F 33.1 °F 63% 30.38 in 10.0 mi NE 9.2 mph - N/A   Overcast
5:53 PM 44.1 °F 40.8 °F 33.1 °F 65% 30.39 in 10.0 mi NNE 5.8 mph - N/A   Overcast
6:53 PM 43.0 °F 38.8 °F 33.1 °F 68% 30.40 in 10.0 mi NNW 6.9 mph - N/A   Overcast
7:53 PM 43.0 °F 41.3 °F 34.0 °F 71% 30.42 in 10.0 mi NNW 3.5 mph - N/A   Overcast
8:53 PM 39.9 °F 37.8 °F 34.0 °F 79% 30.42 in 8.0 mi North 3.5 mph - N/A   Clear
9:53 PM 39.0 °F 35.7 °F 34.0 °F 82% 30.41 in 10.0 mi NNW 4.6 mph - N/A   Clear
10:53 PM 39.0 °F 34.8 °F 35.1 °F 86% 30.41 in 10.0 mi North 5.8 mph - N/A   Clear
11:53 PM 39.9 °F 35.8 °F 36.0 °F 86% 30.40 in 10.0 mi North 5.8 mph - N/A   Clear